Back to catalog

COSMOS 2123

AliveMilitaryPO
NORAD 21089·PAYLOAD·🇷🇺 Russia

Launched Feb 5, 1991 from Plesetsk Cosmodrome

Loading…

Next Passes (next 24 hours)

TLE

FreshSource: Space-Track

Epoch: Sep 14, 2026, 06:41 UTC

1 21089U 91007A   26257.27880456  .00000024  00000-0  88634-5 0  9999
2 21089  82.9186 271.1210 0030305  59.9836 310.7753 13.74896958786165

Track COSMOS 2123 in real time with AllMySat

Download on the App Store